User: anonymous   Login
Location: Unspecified
(0.0000°N, 0.0000°E)
Time: 22:16:34
(UTC+00:00)
Language:

STARLINK-30895 - Orbit

View from above orbital plane
View from above orbital plane
View from above satellite
View from above satellite

Ground track
Ground track

The orbit is defined by the following mean orbital elements,

1 58418U          26145.23595123 +.00000000 +00000-0 +44189-3 0 00006
2 58418  43.0022 340.1813 0000997 262.1682  97.9057 15.27574591    04
Epoch (UTC): 25 May 2026 05:39:46
Eccentricity: 0.0000997
inclination: 43.0022°
perigee height: 482 km
apogee height: 484 km
right ascension of ascending node: 340.1813°
argument of perigee: 262.1682°
revolutions per day: 15.27574591
mean anomaly at epoch: 97.9057°

The dashed part of the orbit path shows where the satellite is in the earth's shadow,  

DLR